1386460831374,20.5059
1386460891374,20.5295
1386460951374,20.5745
1386461011374,20.5286
1386461071374,20.5219
1386461131374,20.5908
1386461191374,20.5614
1386461251374,20.6184
1386461311374,20.6274
1386461371374,20.5572
1386461431374,20.6175
1386461491374,20.7161
1386461551373,20.6036
1386461611373,20.6184
1386461671373,20.6090
1386461731373,20.6331
1386461791374,20.5858
1386461851374,20.5824
1386461911374,20.5746
1386461971374,20.5690
1386462031374,20.5911
1386462091374,20.5785
1386462151374,20.6070
1386462211374,20.7151
1386462271374,20.6224
1386462331374,20.6027
1386462391374,20.6801
1386462451374,20.6104
1386462511374,20.6314
1386462571374,20.5547
1386462631374,20.5918
1386462691374,20.5764
1386462751374,20.5810
1386462811374,20.6066
1386462871373,20.5632
1386462931373,20.5982
1386462991373,20.7057
1386463051373,20.4571
1386463111374,20.6743
1386463171374,20.6601
1386463231374,20.6545
1386463291374,20.6254
1386463351374,20.6089
1386463411374,20.7379
1386463471374,20.7555
1386463531374,20.7797
1386463591374,20.7597
1386463651374,20.6902
1386463711374,20.6443
1386463771374,20.6866
1386463831374,20.6838
1386463891374,20.7439
1386463951374,20.6815
1386464011374,20.6285
1386464071374,20.5775
1386464131374,20.5902
1386464191374,20.5855
1386464251373,20.6206
1386464311373,20.6693
1386464371373,20.5336
1386464431384,20.5461
1386464491384,20.6376
1386464551384,20.5942
1386464611384,20.5189
1386464671384,20.6067
1386464731384,20.5561
1386464791384,20.6108
1386464851384,20.5923
1386464911384,20.6114
1386464971384,20.5319
1386465031384,20.6069
1386465091384,20.5617
1386465151384,20.5517
1386465211384,20.5868
1386465271384,20.5828
1386465331384,20.6569
1386465391384,20.6544
1386465451384,20.6551
1386465511384,20.7125
1386465571384,20.8027
1386465631384,20.6936
1386465691384,20.7588
1386465751384,20.7360
1386465811384,20.7073
1386465871384,20.6556
1386465931384,20.6024
1386465991384,20.6270
1386466051384,20.5985
1386466111384,20.6212
1386466171384,20.6123
1386466231384,20.5650
1386466291384,20.5751
1386466351384,20.5872
1386466411384,20.6161
1386466471384,20.6270
1386466531384,20.5761
1386466591384,20.5809
1386466651384,20.6191
1386466711384,20.6056
1386466771384,20.5670
1386466831384,20.5455
1386466891384,20.5729
1386466951384,20.5794
1386467011384,20.6103
1386467071384,20.5835
1386467131384,20.5947
1386467191384,20.5008
1386467251384,20.6269
1386467311384,20.5351
1386467371384,20.5806
1386467431384,20.5311
1386467491384,20.4589
1386467551384,20.4582
1386467611384,20.5092
1386467671384,20.4296
1386467731384,20.4957
1386467791384,20.4544
1386467851384,20.4165
1386467911384,20.4120
1386467971384,20.4163
1386468031394,20.4381
1386468091394,20.5398
1386468151394,20.5650
1386468211394,20.5246
1386468271394,20.5345
1386468331394,20.5413
1386468391394,20.5168
1386468451394,20.5579
1386468511394,20.5301
1386468571394,20.4940
1386468631394,20.5414
1386468691394,20.4930
1386468751394,20.4621
1386468811394,20.4505
1386468871394,20.5028
1386468931394,20.4335
1386468991394,20.5198
1386469051394,20.4593
1386469111394,20.4960
1386469171394,20.4251
1386469231394,20.4242
1386469291394,20.4967
1386469351394,20.4890
1386469411394,20.4693
1386469471394,20.5947
1386469531394,20.6444
1386469591394,20.6799
1386469651394,20.6198
1386469711394,20.6235
1386469771394,20.6239
1386469831394,20.6351
1386469891394,20.6162
1386469951394,20.5648
1386470011394,20.5284
1386470071394,20.6477
1386470131394,20.5950
1386470191394,20.5512
1386470251394,20.5618
1386470311394,20.4977
1386470371394,20.5607
1386470431394,20.5939
1386470491394,20.5336
1386470551394,20.5672
1386470611394,20.6241
1386470671394,20.5964
1386470731394,20.6308
1386470791394,20.6092
1386470851394,20.5937
1386470911394,20.6087
1386470971394,20.6118
1386471031394,20.6056
1386471091394,20.5337
1386471151394,20.6107
1386471211394,20.5326
1386471271394,20.5740
1386471331394,20.5392
1386471391394,20.6101
1386471451394,20.6571
1386471511394,20.6379
1386471571394,20.6307
1386471631404,20.6586
1386471691404,20.7972
1386471751404,20.7565
1386471811404,20.6245
1386471871404,20.5857
1386471931404,20.5611
1386471991404,20.4727
1386472051404,20.5076
1386472111404,20.5077
1386472171404,20.3912
1386472231404,20.4673
1386472291404,20.4161
1386472351404,20.3762
1386472411404,20.3744
1386472471404,20.4698
1386472531404,20.4776
1386472591404,20.4432
1386472651404,20.4788
1386472711404,20.3856
1386472771404,20.5028
1386472831404,20.5105
1386472891404,20.5397
1386472951404,20.4508
1386473011404,20.4504
1386473071404,20.4744
1386473131404,20.5300
1386473191404,20.5029
1386473251404,20.4780
1386473311404,20.5316
1386473371404,20.4817
1386473431404,20.4682
1386473491404,20.4667
1386473551404,20.4810
1386473611404,20.4747
1386473671404,20.5430
1386473731404,20.4213
1386473791404,20.5341
1386473851404,20.5215
1386473911404,20.4913
1386473971404,20.5181
1386474031404,20.5282
1386474091404,20.5119
1386474151404,20.5669
1386474211404,20.5822
1386474271404,20.5357
1386474331404,20.6014
1386474391404,20.5275
1386474451404,20.5797
1386474511404,20.4996
1386474571404,20.4656
1386474631404,20.4290
1386474691404,20.5250
1386474751404,20.4783
1386474811404,20.5693
1386474871404,20.5309
1386474931404,20.5063
1386474991404,20.4855
1386475051404,20.4999
1386475111404,20.5043
1386475171404,20.4966
1386475231414,20.4791
1386475291414,20.5469
1386475351414,20.4686
1386475411414,20.4618
1386475471414,20.5490
1386475531414,20.4349
1386475591414,20.5443
1386475651414,20.4722
1386475711414,20.4579
1386475771414,20.4038
1386475831414,20.4832
1386475891414,20.4506
1386475951414,20.5203
1386476011414,20.4826
1386476071414,20.4172
1386476131414,20.5316
1386476191414,20.5372
1386476251414,20.4302
1386476311414,20.4496
1386476371414,20.4231
1386476431414,20.4779
1386476491414,20.5524
1386476551414,20.5129
1386476611414,20.4834
1386476671414,20.5042
1386476731414,20.4778
1386476791414,20.4917
1386476851414,20.5274
1386476911414,20.4893
1386476971414,20.5063
1386477031414,20.4493
1386477091414,20.5109
1386477151414,20.5255
1386477211414,20.4711
1386477271414,20.4888
1386477331414,20.5493
1386477391414,20.5046
1386477451414,20.5487
1386477511414,20.4724
1386477571414,20.4715
1386477631414,20.5366
1386477691414,20.4754
1386477751414,20.5274
1386477811414,20.4589
1386477871414,20.5396
1386477931414,20.4676
1386477991414,20.4960
1386478051414,20.4663
1386478111414,20.4793
1386478171414,20.4124
1386478231414,20.4906
1386478291414,20.4827
1386478351414,20.4948
1386478411414,20.4911
1386478471414,20.5237
1386478531414,20.4766
1386478591414,20.5355
1386478651414,20.5159
1386478711414,20.5697
1386478771414,20.5334
1386478831424,20.5459
1386478891424,20.5468
1386478951424,20.5223
1386479011424,20.5097
1386479071424,20.5467
1386479131424,20.5765
1386479191424,20.5630
1386479251424,20.6096
1386479311424,20.5774
1386479371424,20.5354
1386479431424,20.5662
1386479491424,20.5625
1386479551424,20.6020
1386479611424,20.5062
1386479671424,20.5130
1386479731424,20.5013
1386479791424,20.4828
1386479851424,20.5613
1386479911424,20.4825
1386479971424,20.4757
1386480031424,20.4882
1386480091424,20.5215
1386480151424,20.5052
1386480211424,20.5387
1386480271424,20.6995
1386480331424,20.6239
1386480391424,20.6357
1386480451424,20.8381
1386480511424,20.8282
1386480571424,20.7471
1386480631424,20.6014
1386480691424,20.4589
1386480751424,20.5335
1386480811424,20.5858
1386480871424,20.4565
1386480931424,20.4673
1386480991424,20.5227
1386481051424,20.4704
1386481111424,20.4708
1386481171424,20.4661
1386481231424,20.4332
1386481291424,20.4259
1386481351424,20.4308
1386481411424,20.4838
1386481471424,20.4293
1386481531424,20.4473
1386481591424,20.4475
1386481651424,20.5499
1386481711424,20.4790
1386481771424,20.5124
1386481831424,20.4888
1386481891424,20.4310
1386481951424,20.4145
1386482011424,20.4778
1386482071424,20.3846
1386482131424,20.4148
1386482191424,20.3769
1386482251424,20.4295
1386482311424,20.4289
1386482371424,20.4522
1386482431435,20.4527
1386482491435,20.3670
1386482551435,20.4082
1386482611435,20.4689
1386482671435,20.4449
1386482731435,20.4381
1386482791435,20.4804
1386482851435,20.4901
1386482911435,20.4591
1386482971435,20.4553
1386483031435,20.5204
1386483091435,20.4862
1386483151435,20.4636
1386483211435,20.4967
1386483271435,20.4178
1386483331435,20.3754
1386483391435,20.4586
1386483451435,20.4545
1386483511435,20.4841
1386483571435,20.4005
1386483631435,20.5665
1386483691435,20.4642
1386483751435,20.5166
1386483811435,20.5040
1386483871435,20.5437
1386483931435,20.5718
1386483991435,20.4576
1386484051435,20.5703
1386484111435,20.5243
1386484171435,20.5182
1386484231435,20.5288
1386484291435,20.5564
1386484351435,20.4773
1386484411435,20.5240
1386484471435,20.5490
1386484531435,20.6174
1386484591435,20.5149
1386484651435,20.4703
1386484711435,20.5429
1386484771435,20.4999
1386484831435,20.4868
1386484891435,20.5357
1386484951435,20.5797
1386485011435,20.5591
1386485071435,20.5883
1386485131435,20.5727
1386485191435,20.5163
1386485251435,20.5496
1386485311435,20.5237
1386485371435,20.5648
1386485431435,20.5850
1386485491435,20.5781
1386485551435,20.5685
1386485611435,20.5483
1386485671435,20.6048
1386485731435,20.5847
1386485791435,20.5682
1386485851435,20.5104
1386485911435,20.4937
1386485971435,20.5540
1386486031445,20.5386
1386486091445,20.6010
1386486151445,20.5873
1386486211445,20.6107
1386486271445,20.6126
1386486331445,20.6437
1386486391445,20.5445
1386486451445,20.5535
1386486511445,20.5177
1386486571445,20.5001
1386486631445,20.4372
1386486691445,20.5012
1386486751445,20.4921
1386486811445,20.4975
1386486871445,20.4288
1386486931445,20.4139
1386486991445,20.3957
1386487051445,20.4964
1386487111445,20.5076
1386487171445,20.5318
1386487231445,20.5216
1386487291445,20.5177
1386487351445,20.5843
1386487411445,20.7460
1386487471445,20.6928
1386487531445,20.6293
1386487591445,20.6216
1386487651445,20.5571
1386487711445,20.5768
1386487771445,20.5050
1386487831445,20.4508
1386487891445,20.5567
1386487951445,20.5325
1386488011445,20.4507
1386488071445,20.4572
1386488131445,20.4278
1386488191445,20.4421
1386488251445,20.4587
1386488311445,20.4193
1386488371445,20.4260
1386488431445,20.4663
1386488491445,20.4120
1386488551445,20.4962
1386488611445,20.4835
1386488671445,20.3981
1386488731445,20.4437
1386488791445,20.4967
1386488851445,20.5156
1386488911445,20.6005
1386488971445,20.6265
1386489031445,20.5795
1386489091445,20.6374
1386489151445,20.6063
1386489211445,20.5449
1386489271445,20.5206
1386489331445,20.4402
1386489391445,20.5822
1386489451445,20.4259
1386489511445,20.5761
1386489571445,20.4924
1386489631456,20.5556
1386489691456,20.5042
1386489751456,20.6321
1386489811456,20.5555
1386489871456,20.5575
1386489931456,20.5492
1386489991456,20.4851
1386490051456,20.6129
1386490111456,20.5524
1386490171456,20.4897
1386490231456,20.4970
1386490291456,20.5195
1386490351456,20.4829
1386490411456,20.4160
1386490471456,20.4921
1386490531456,20.4762
1386490591456,20.4771
1386490651456,20.4487
1386490711456,20.5241
1386490771456,20.5550
1386490831456,20.6048
1386490891456,20.5299
1386490951456,20.5103
1386491011456,20.5114
1386491071456,20.5337
1386491131456,20.4651
1386491191456,20.5296
1386491251456,20.5139
1386491311456,20.4765
1386491371456,20.5791
1386491431456,20.5835
1386491491456,20.5905
1386491551456,20.5536
1386491611456,20.6209
1386491671456,20.5823
1386491731456,20.6208
1386491791456,20.6087
1386491851456,20.6152
1386491911456,20.6586
1386491971456,20.6590
1386492031456,20.6586
1386492091456,20.6153
1386492151456,20.6295
1386492211456,20.6209
1386492271456,20.5930
1386492331456,20.5681
1386492391456,20.5784
1386492451456,20.6038
1386492511456,20.5754
1386492571456,20.5200
1386492631456,20.5280
1386492691456,20.5827
1386492751456,20.5024
1386492811456,20.5267
1386492871456,20.5639
1386492931456,20.5977
1386492991456,20.6452
1386493051456,20.5482
1386493111456,20.5597
1386493171456,20.5231
1386493231467,20.5043
1386493291467,20.5376
1386493351467,20.6098
1386493411467,20.5720
1386493471467,20.5065
1386493531467,20.5202
1386493591467,20.4916
1386493651467,20.5982
1386493711467,20.5225
1386493771467,20.5596
1386493831467,20.5817
1386493891467,20.4854
1386493951467,20.4800
1386494011467,20.5709
1386494071467,20.6074
1386494131467,20.5964
1386494191467,20.4661
1386494251467,20.4747
1386494311467,20.4715
1386494371467,20.5281
1386494431467,20.4267
1386494491467,20.4402
1386494551467,20.4414
1386494611467,20.4633
1386494671467,20.4928
1386494731467,20.4842
1386494791467,20.3766
1386494851467,20.4733
1386494911467,20.5027
1386494971467,20.4560
1386495031467,20.3975
1386495091467,20.3944
1386495151467,20.5153
1386495211467,20.4688
1386495271467,20.4871
1386495331467,20.4229
1386495391467,20.5136
1386495451467,20.4926
1386495511467,20.4239
1386495571467,20.4608
1386495631467,20.4681
1386495691467,20.4339
1386495751467,20.4505
1386495811467,20.4387
1386495871467,20.3195
1386495931467,20.4178
1386495991467,20.3944
1386496051467,20.4065
1386496111467,20.4531
1386496171467,20.3648
1386496231467,20.4243
1386496291467,20.4258
1386496351467,20.4055
1386496411467,20.3443
1386496471467,20.3520
1386496531467,20.4208
1386496591467,20.3700
1386496651467,20.4266
1386496711467,20.3998
1386496771467,20.4237
1386496831478,20.3998
1386496891478,20.4166
1386496951478,20.4420
1386497011478,20.5728
1386497071478,20.7077
1386497131478,20.7279
1386497191478,20.7114
1386497251478,20.7073
1386497311478,20.7430
1386497371478,20.6992
1386497431478,20.7201
1386497491478,20.8297
1386497551478,20.7045
1386497611478,20.6931
1386497671478,20.6192
1386497731478,20.5952
1386497791478,20.6183
1386497851478,20.5394
1386497911478,20.5286
1386497971478,20.4829
1386498031478,20.5553
1386498091478,20.4748
1386498151478,20.5128
1386498211478,20.4726
1386498271478,20.4565
1386498331478,20.5130
1386498391478,20.5017
1386498451478,20.5003
1386498511478,20.5170
1386498571478,20.4894
1386498631478,20.5572
1386498691478,20.5437
1386498751478,20.4710
1386498811478,20.4822
1386498871478,20.4000
1386498931478,20.5021
1386498991478,20.5013
1386499051478,20.4112
1386499111478,20.4123
1386499171478,20.5320
1386499231478,20.4349
1386499291478,20.5247
1386499351478,20.5377
1386499411478,20.4230
1386499471478,20.5075
1386499531478,20.4874
1386499591478,20.5143
1386499651478,20.4217
1386499711478,20.5011
1386499771478,20.4999
1386499831478,20.4368
1386499891478,20.4579
1386499951478,20.4808
1386500011478,20.4847
1386500071478,20.4836
1386500131478,20.4781
1386500191478,20.5464
1386500251478,20.5169
1386500311478,20.4728
1386500371478,20.4629
1386500431490,20.4521
1386500491490,20.5183
1386500551490,20.4195
1386500611490,20.5126
1386500671490,20.4978
1386500731490,20.5106
1386500791490,20.5824
1386500851490,20.5580
1386500911490,20.4923
1386500971490,20.4439
1386501031490,20.5266
1386501091490,20.5047
1386501151490,20.5223
1386501211490,20.4616
1386501271490,20.5323
1386501331490,20.5693
1386501391490,20.6544
1386501451490,20.5687
1386501511490,20.6848
1386501571490,20.5786
1386501631490,20.6443
1386501691490,20.6565
1386501751490,20.5936
1386501811490,20.5093
1386501871490,20.4867
1386501931490,20.5216
1386501991490,20.5094
1386502051490,20.5330
1386502111490,20.5171
1386502171490,20.5730
1386502231490,20.6161
1386502291490,20.6491
1386502351490,20.5562
1386502411490,20.5948
1386502471490,20.6275
1386502531490,20.5135
1386502591490,20.6176
1386502651490,20.5822
1386502711490,20.5461
1386502771490,20.5846
1386502831490,20.5750
1386502891490,20.5343
1386502951490,20.5202
1386503011490,20.5769
1386503071490,20.6427
1386503131490,20.6539
1386503191490,20.6707
1386503251490,20.6792
1386503311490,20.6025
1386503371490,20.5883
1386503431490,20.5498
1386503491490,20.5359
1386503551490,20.5500
1386503611490,20.5705
1386503671490,20.5646
1386503731490,20.6017
1386503791490,20.6269
1386503851490,20.5378
1386503911490,20.5992
1386503971490,20.5776
1386504031501,20.5249
1386504091501,20.5047
1386504151501,20.5990
1386504211501,20.4688
1386504271501,20.5418
1386504331501,20.5781
1386504391501,20.5019
1386504451501,20.5744
1386504511501,20.5932
1386504571501,20.5487
1386504631501,20.5721
1386504691501,20.5488
1386504751501,20.5760
1386504811501,20.5117
1386504871501,20.5529
1386504931501,20.5508
1386504991501,20.5891
1386505051501,20.6405
1386505111501,20.6180
1386505171501,20.6760
1386505231501,20.6978
1386505291501,20.7016
1386505351501,20.7017
1386505411501,20.7611
1386505471501,20.7906
1386505531501,20.7810
1386505591501,20.8168
1386505651501,20.7701
1386505711501,20.7236
1386505771501,20.6537
1386505831501,20.7229
1386505891501,20.8021
1386505951501,20.7938
1386506011501,20.6831
1386506071501,20.7310
1386506131501,20.7078
1386506191501,20.7475
1386506251501,20.7529
1386506311501,20.7536
1386506371501,20.7544
1386506431501,20.7605
1386506491501,20.6249
1386506551501,20.6557
1386506611501,20.7373
1386506671501,20.6553
1386506731501,20.6372
1386506791501,20.6614
1386506851501,20.7557
1386506911501,20.6236
1386506971501,20.6669
1386507031501,20.7204
1386507091501,20.7014
1386507151501,20.6996
1386507211501,20.6160
1386507271501,20.6676
1386507331501,20.6455
1386507391501,20.6794
1386507451501,20.6297
1386507511501,20.6651
1386507571501,20.5943
1386507631513,20.6064
1386507691513,20.7960
1386507751513,20.6771
1386507811513,20.6208
1386507871513,20.5234
1386507931513,20.5355
1386507991513,20.5637
1386508051513,20.6554
1386508111513,20.6368
1386508171513,20.7234
1386508231513,20.8270
1386508291513,20.7460
1386508351513,20.6739
1386508411513,20.6263
1386508471513,20.5917
1386508531513,20.6514
1386508591513,20.7045
1386508651513,20.5989
1386508711513,20.6379
1386508771513,20.6336
1386508831513,20.5458
1386508891513,20.6123
1386508951513,20.4914
1386509011513,20.5688
1386510151513,20.5164
1386510211513,19.7986
1386510271513,20.6110
1386510331513,20.5045
1386510391513,20.5716
1386510451513,20.5613
1386510511513,20.5275
1386510571513,20.5377
1386510631513,20.5546
1386510691513,20.5406
1386510751513,20.6123
1386510811513,20.6197
1386510871513,20.6071
1386510931513,20.6354
1386510991513,20.5928
1386511051513,20.5840
1386511111513,20.5838
1386511171513,20.6493
1386511231524,20.6202
1386511291524,20.5739
1386511351524,20.5859
1386511411524,20.5651
1386511471524,20.5436
1386511531524,20.5688
1386511591524,20.5701
1386511651524,20.6097
1386511711524,20.6043
1386511771524,20.6534
1386511831524,20.5731
1386511891524,20.5615
1386511951524,20.5809
1386512011524,20.5888
1386512071524,20.6072
1386512131524,20.6560
1386512191524,20.6116
1386512251524,20.5927
1386512311524,20.5597
1386512371524,20.6415
1386512431524,20.6248
1386512491524,20.5942
1386512551524,20.6585
1386512611524,20.5736
1386512671524,20.5594
1386512731524,20.5709
1386512791524,20.6033
1386512851524,20.6346
1386512911524,20.5991
1386512971524,20.5555
1386513031524,20.6025
1386513091524,20.5878
1386513151524,20.6131
1386513211524,20.6124
1386513271524,20.5522
1386513331524,20.6258
1386513391524,20.5969
1386513451524,20.6214
1386513511524,20.6040
1386513571524,20.5705
1386513631524,20.6393
1386513691524,20.5738
1386513751524,20.5700
1386513811524,20.5846
1386513871524,20.5101
1386513931524,20.5732
1386513991524,20.5682
1386514051524,20.5269
1386514111524,20.5615
1386514171524,20.5596
1386514231524,20.6376
1386514291524,20.5930
1386514351524,20.5742
1386514411524,20.5352
1386514471524,20.6165
1386514531524,20.6389
1386514591524,20.5509
1386514651524,20.5880
1386514711524,20.5989
1386514771524,20.6461
1386514831536,20.6279
1386514891536,20.6880
1386514951536,20.6514
1386515011536,20.6532
1386515071536,20.6271
1386515131536,20.6252
1386515191536,20.6360
1386515251536,20.6158
1386515311536,20.5966
1386515371536,20.6099
1386515431536,20.5747
1386515491536,20.6229
1386515551536,20.7139
1386515611536,20.6839
1386515671536,20.6364
1386515731536,20.6059
1386515791536,20.6590
1386515851536,20.6780
1386515911536,20.5462
1386515971536,20.6732
1386516031536,20.6752
1386516091536,20.6628
1386516151536,20.5870
1386516211536,20.5763
1386516271536,20.6074
1386516331536,20.5776
1386516391536,20.6617
1386516451536,20.5362
1386516511536,20.6066
1386516571536,20.6004
1386516631536,20.5826
1386516691536,20.6618
1386516751536,20.6236
1386516811536,20.6298
1386516871536,20.5997
1386516931536,20.6698
1386516991536,20.6295
1386517051536,20.6573
1386517111536,20.6080
1386517171536,20.6256
1386517231536,20.6265
1386517291536,20.6764
1386517351536,20.5638
1386517411536,20.6738
1386517471536,20.6325
1386517531536,20.6495
1386517591536,20.6353
1386517651536,20.6632
1386517711536,20.6146
1386517771536,20.6581
1386517831536,20.6449
1386517891536,20.5796
1386517951536,20.5663
1386518011536,20.6191
1386518071536,20.6123
1386518131536,20.5966
1386518191536,20.5830
1386518251536,20.5344
1386518311536,20.5919
1386518371536,20.6218
1386518431547,20.6041
1386518491547,20.6147
1386518551547,20.6419
1386518611547,20.6175
1386518671547,20.5710
1386518731547,20.5834
1386518791547,20.5811
1386518851547,20.6714
1386518911547,20.7019
1386518971547,20.6233
1386519031547,20.5816
1386519091547,20.6620
1386519151547,20.6593
1386519211547,20.5837
1386519271547,20.5383
1386519331547,20.6215
1386519391547,20.5724
1386519451547,20.5633
1386519511547,20.5840
1386519571547,20.6018
1386519631547,20.6108
1386519691547,20.5589
1386519751547,20.6423
1386519811547,20.5101
1386519871547,20.6489
1386519931547,20.5583
1386519991547,20.5818
1386520051547,20.6071
1386520111547,20.5235
1386520171547,20.6129
1386520231547,20.5247
1386520291547,20.6332
1386520351547,20.5794
1386520411547,20.5499
1386520471547,20.5895
1386520531547,20.6188
1386520591547,20.5899
1386520651547,20.6192
1386520711547,20.5535
1386520771547,20.5805
1386520831547,20.5884
1386520891547,20.5954
1386520951547,20.5315
1386521011547,20.5445
1386521071547,20.5143
1386521131547,20.5685
1386521191547,20.5087
1386521251547,20.4840
1386521311547,20.5313
1386521371547,20.4501
1386521431547,20.5001
1386521491547,20.5720
1386521551547,20.6107
1386521611547,20.5171
1386521671547,20.5413
1386521731547,20.4671
1386521791547,20.5860
1386521851547,20.5679
1386521911547,20.5113
1386521971547,20.5168
1386522031559,20.5915
1386522091559,20.5773
1386522151559,20.6053
1386522211559,20.5859
1386522271559,20.5654
1386522331559,20.6128
1386522391559,20.6211
1386522451559,20.5885
1386522511559,20.5725
1386522571559,20.5624
1386522631559,20.6080
1386522691559,20.5519
1386522751559,20.5220
1386522811559,20.5678
1386522871559,20.5056
1386522931559,20.5667
1386522991559,20.5309
1386523051559,20.5257
1386523111559,20.5480
1386523171559,20.5889
1386523231559,20.4948
1386523291559,20.5358
1386523351559,20.5275
1386523411559,20.5403
1386523471559,20.6153
1386523531559,20.5607
1386523591559,20.5465
1386523651559,20.5216
1386523711559,20.5135
1386523771559,20.4948
1386523831559,20.5066
1386523891559,20.5435
1386523951559,20.5310
1386524011559,20.4508
1386524071559,20.4505
1386524131559,20.4225
1386524191559,20.4655
1386524251559,20.5193
1386524311559,20.4394
1386524371559,20.4934
1386524431559,20.4937
1386524491559,20.5201
1386524551559,20.4659
1386524611559,20.5067
1386524671559,20.5081
1386524731559,20.4919
1386524791559,20.5055
1386524851559,20.4393
1386524911559,20.5297
1386524971559,20.5196
1386525031559,20.5646
1386525091559,20.6173
1386525151559,20.5970
1386525211559,20.5921
1386525271559,20.6081
1386525331559,20.6561
1386525391559,20.6208
1386525451559,20.6605
1386525511559,20.6051
1386525571559,20.5427
1386525631570,20.5587
1386525691570,20.6164
1386525751570,20.5411
1386525811570,20.5171
1386525871570,20.6286
1386525931570,20.6194
1386525991570,20.5692
1386526051570,20.6575
1386526111570,20.6519
1386526171570,20.6640
1386526231570,20.6672
1386526291570,20.6200
1386526351570,20.6084
1386526411570,20.6005
1386526471570,20.6125
1386526531570,20.5479
1386526591570,20.5633
1386526651570,20.5508
1386526711570,20.6058
1386526771570,20.6058
1386526831570,20.5939
1386526891570,20.5240
1386526951570,20.5701
1386527011570,20.5763
1386527071570,20.5511
1386527131570,20.4605
1386527191570,20.4945
1386527251570,20.4973